Hourly Weather Kozlowo

Today, 21 October, Wednesday

Time Temperature Precipitation Wind Pressure Humidity
00:00 +8°C° 0 mm 5 mps 749 mmHg 71%
01:00 +8°C° 0 mm 4 mps 749 mmHg 69%
02:00 +8°C° 0.1 mm 4 mps 748 mmHg 70%
03:00 +8°C° 0.1 mm 4 mps 748 mmHg 71%
04:00 +8°C° 0.1 mm 4 mps 747 mmHg 72%
05:00 +8°C° 0 mm 4 mps 747 mmHg 73%
06:00 +8°C° 0 mm 4 mps 748 mmHg 74%
07:00 +8°C° 0 mm 4 mps 748 mmHg 76%
08:00 +8°C° 0.1 mm 4 mps 748 mmHg 75%
09:00 +10°C° 0.1 mm 4 mps 748 mmHg 75%
10:00 +10°C° 0.1 mm 4 mps 748 mmHg 75%
11:00 +10°C° 0 mm 3 mps 748 mmHg 75%
12:00 +10°C° 0 mm 3 mps 748 mmHg 75%
13:00 +10°C° 0 mm 3 mps 748 mmHg 75%
14:00 +10°C° 0 mm 3 mps 747 mmHg 75%
15:00 +11°C° 0 mm 3 mps 747 mmHg 75%
16:00 +11°C° 0 mm 3 mps 747 mmHg 75%
17:00 +11°C° 0 mm 3 mps 747 mmHg 77%
18:00 +10°C° 0 mm 3 mps 747 mmHg 78%
19:00 +10°C° 0 mm 3 mps 747 mmHg 80%
20:00 +10°C° 0 mm 3 mps 747 mmHg 80%
21:00 +10°C° 0 mm 4 mps 747 mmHg 79%
22:00 +10°C° 0 mm 4 mps 747 mmHg 79%
23:00 +10°C° 0 mm 4 mps 747 mmHg 78%

Tomorrow, 22 October, Thursday

Time Temperature Precipitation Wind Pressure Humidity
00:00 +10°C° 0 mm 4 mps 747 mmHg 77%
01:00 +10°C° 0 mm 4 mps 747 mmHg 76%
02:00 +9°C° 0 mm 5 mps 747 mmHg 77%
03:00 +9°C° 0 mm 5 mps 747 mmHg 77%
04:00 +9°C° 0 mm 5 mps 746 mmHg 78%
05:00 +9°C° 0 mm 5 mps 747 mmHg 78%
06:00 +9°C° 0 mm 5 mps 747 mmHg 78%
07:00 +10°C° 0 mm 5 mps 747 mmHg 78%
08:00 +11°C° 0 mm 6 mps 748 mmHg 74%
09:00 +14°C° 0 mm 6 mps 748 mmHg 70%
10:00 +15°C° 0 mm 6 mps 748 mmHg 66%
11:00 +16°C° 0 mm 6 mps 748 mmHg 64%
12:00 +17°C° 0 mm 6 mps 748 mmHg 63%
13:00 +19°C° 0 mm 6 mps 748 mmHg 61%
14:00 +17°C° 0 mm 5 mps 748 mmHg 65%
15:00 +17°C° 0 mm 4 mps 748 mmHg 70%
16:00 +15°C° 0 mm 4 mps 748 mmHg 74%
17:00 +16°C° 0 mm 3 mps 748 mmHg 76%
18:00 +14°C° 0 mm 3 mps 748 mmHg 79%
19:00 +14°C° 0 mm 3 mps 748 mmHg 81%
20:00 +13°C° 0 mm 3 mps 748 mmHg 83%
21:00 +13°C° 0 mm 3 mps 748 mmHg 84%
22:00 +13°C° 0 mm 3 mps 748 mmHg 85%
23:00 +13°C° 0 mm 3 mps 748 mmHg 85%

Day after tomorrow, 23 October, Friday

Time Temperature Precipitation Wind Pressure Humidity
00:00 +12°C° 0 mm 3 mps 748 mmHg 86%
01:00 +12°C° 0 mm 3 mps 747 mmHg 86%
02:00 +13°C° 0 mm 3 mps 747 mmHg 83%
03:00 +13°C° 0 mm 3 mps 747 mmHg 81%
04:00 +13°C° 0 mm 4 mps 746 mmHg 79%
05:00 +13°C° 0 mm 4 mps 746 mmHg 79%
06:00 +13°C° 0 mm 4 mps 746 mmHg 79%
07:00 +13°C° 0 mm 4 mps 746 mmHg 80%
08:00 +13°C° 0 mm 5 mps 746 mmHg 79%
09:00 +14°C° 0 mm 5 mps 746 mmHg 78%
10:00 +14°C° 0 mm 5 mps 746 mmHg 77%
11:00 +15°C° 0 mm 5 mps 746 mmHg 75%
12:00 +16°C° 0 mm 5 mps 745 mmHg 73%
13:00 +17°C° 0 mm 5 mps 745 mmHg 72%
14:00 +17°C° 0.1 mm 4 mps 745 mmHg 76%
15:00 +15°C° 0.1 mm 4 mps 745 mmHg 80%
16:00 +14°C° 0.1 mm 3 mps 745 mmHg 85%
17:00 +14°C° 0 mm 3 mps 745 mmHg 87%
18:00 +13°C° 0 mm 3 mps 745 mmHg 90%
19:00 +13°C° 0 mm 3 mps 745 mmHg 92%
20:00 +12°C° 0 mm 3 mps 745 mmHg 93%
21:00 +12°C° 0 mm 3 mps 745 mmHg 93%
22:00 +12°C° 0 mm 3 mps 745 mmHg 93%
23:00 +12°C° 0 mm 3 mps 745 mmHg 93%

24 October, Saturday

Time Temperature Precipitation Wind Pressure Humidity
00:00 +12°C° 0 mm 3 mps 745 mmHg 94%
01:00 +12°C° 0 mm 4 mps 745 mmHg 94%
02:00 +12°C° 0 mm 4 mps 745 mmHg 94%
03:00 +11°C° 0 mm 3 mps 745 mmHg 95%
04:00 +11°C° 0 mm 3 mps 745 mmHg 95%
05:00 +11°C° 0 mm 4 mps 745 mmHg 94%
06:00 +11°C° 0 mm 4 mps 745 mmHg 94%
07:00 +9°C° 0 mm 5 mps 745 mmHg 94%
08:00 +10°C° 0 mm 5 mps 746 mmHg 85%
09:00 +11°C° 0 mm 6 mps 746 mmHg 77%
10:00 +11°C° 0 mm 6 mps 746 mmHg 69%
11:00 +11°C° 0.2 mm 7 mps 746 mmHg 70%
12:00 +11°C° 0.2 mm 7 mps 746 mmHg 71%
13:00 +11°C° 0.2 mm 7 mps 746 mmHg 72%
14:00 +11°C° 0.1 mm 7 mps 747 mmHg 69%
15:00 +10°C° 0.1 mm 6 mps 747 mmHg 67%
16:00 +10°C° 0.1 mm 5 mps 747 mmHg 65%
17:00 +9°C° 0 mm 5 mps 748 mmHg 69%
18:00 +8°C° 0 mm 4 mps 749 mmHg 73%
19:00 +7°C° 0 mm 4 mps 749 mmHg 77%
20:00 +8°C° 0 mm 3 mps 750 mmHg 79%
21:00 +7°C° 0 mm 3 mps 750 mmHg 82%
22:00 +7°C° 0 mm 3 mps 750 mmHg 84%
23:00 +7°C° 0 mm 3 mps 750 mmHg 85%

25 October, Sunday

Time Temperature Precipitation Wind Pressure Humidity
00:00 +6°C° 0 mm 2 mps 750 mmHg 86%
01:00 +6°C° 0 mm 2 mps 751 mmHg 87%
02:00 +6°C° 0 mm 2 mps 750 mmHg 87%
03:00 +6°C° 0 mm 2 mps 750 mmHg 87%
04:00 +5°C° 0 mm 2 mps 750 mmHg 87%
05:00 +5°C° 0 mm 2 mps 750 mmHg 87%
06:00 +5°C° 0 mm 2 mps 750 mmHg 87%
07:00 +4°C° 0 mm 3 mps 750 mmHg 87%
08:00 +7°C° 0 mm 3 mps 750 mmHg 82%
09:00 +8°C° 0 mm 4 mps 750 mmHg 77%
10:00 +11°C° 0 mm 4 mps 750 mmHg 71%
11:00 +12°C° 0 mm 4 mps 750 mmHg 70%
12:00 +13°C° 0 mm 4 mps 749 mmHg 68%
13:00 +14°C° 0 mm 4 mps 749 mmHg 66%
14:00 +13°C° 0 mm 4 mps 748 mmHg 69%
15:00 +12°C° 0 mm 3 mps 748 mmHg 73%
16:00 +12°C° 0 mm 3 mps 748 mmHg 76%
17:00 +11°C° 0 mm 3 mps 748 mmHg 79%
18:00 +10°C° 0 mm 3 mps 747 mmHg 82%
19:00 +10°C° 0 mm 4 mps 747 mmHg 85%
20:00 +10°C° 0 mm 4 mps 747 mmHg 85%
21:00 +10°C° 0 mm 4 mps 747 mmHg 85%
22:00 +10°C° 0 mm 4 mps 747 mmHg 84%
23:00 +8°C° 0 mm 4 mps 747 mmHg 86%

26 October, Monday

Time Temperature Precipitation Wind Pressure Humidity
00:00 +8°C° 0 mm 4 mps 747 mmHg 87%
01:00 +8°C° 0 mm 4 mps 747 mmHg 89%
02:00 +8°C° 0 mm 4 mps 746 mmHg 90%
03:00 +7°C° 0 mm 4 mps 746 mmHg 91%
04:00 +8°C° 0 mm 3 mps 746 mmHg 92%
05:00 +8°C° 0 mm 3 mps 746 mmHg 92%
06:00 +8°C° 0 mm 3 mps 746 mmHg 92%
07:00 +8°C° 0 mm 3 mps 746 mmHg 93%
08:00 +9°C° 0 mm 3 mps 746 mmHg 87%
09:00 +10°C° 0 mm 3 mps 746 mmHg 82%
10:00 +12°C° 0 mm 3 mps 746 mmHg 76%
11:00 +12°C° 0 mm 3 mps 746 mmHg 74%
12:00 +13°C° 0 mm 4 mps 745 mmHg 72%
13:00 +14°C° 0 mm 4 mps 745 mmHg 70%
14:00 +13°C° 0 mm 3 mps 745 mmHg 73%
15:00 +13°C° 0 mm 3 mps 745 mmHg 75%
16:00 +12°C° 0 mm 3 mps 744 mmHg 78%
17:00 +12°C° 0.1 mm 3 mps 744 mmHg 79%
18:00 +12°C° 0.1 mm 3 mps 744 mmHg 80%
19:00 +13°C° 0.1 mm 2 mps 744 mmHg 81%
20:00 +13°C° 0.2 mm 2 mps 744 mmHg 83%
21:00 +13°C° 0.2 mm 2 mps 744 mmHg 86%
22:00 +13°C° 0.2 mm 2 mps 745 mmHg 88%
23:00 +12°C° 0.2 mm 2 mps 745 mmHg 90%

27 October, Tuesday

Time Temperature Precipitation Wind Pressure Humidity
00:00 +12°C° 0.2 mm 2 mps 745 mmHg 91%
01:00 +12°C° 0.2 mm 2 mps 745 mmHg 93%
02:00 +12°C° 0 mm 2 mps 745 mmHg 93%
03:00 +12°C° 0 mm 2 mps 745 mmHg 93%
04:00 +12°C° 0 mm 2 mps 745 mmHg 93%
05:00 +12°C° 0 mm 2 mps 745 mmHg 93%
06:00 +12°C° 0 mm 2 mps 745 mmHg 93%
07:00 +12°C° 0 mm 2 mps 746 mmHg 93%
08:00 +13°C° 0 mm 2 mps 746 mmHg 88%
09:00 +13°C° 0 mm 2 mps 747 mmHg 84%
10:00 +14°C° 0 mm 2 mps 747 mmHg 80%
11:00 +15°C° 0 mm 2 mps 747 mmHg 76%
12:00 +16°C° 0 mm 2 mps 747 mmHg 73%
13:00 +16°C° 0 mm 1 mps 748 mmHg 70%
14:00 +16°C° 0 mm 1 mps 748 mmHg 73%
15:00 +15°C° 0 mm 1 mps 748 mmHg 77%
16:00 +14°C° 0 mm 1 mps 748 mmHg 81%
17:00 +14°C° 0 mm 1 mps 749 mmHg 83%
18:00 +13°C° 0 mm 1 mps 749 mmHg 86%
19:00 +13°C° 0 mm 1 mps 749 mmHg 88%
20:00 +12°C° 0 mm 1 mps 750 mmHg 89%
21:00 +12°C° 0 mm 1 mps 750 mmHg 90%
22:00 +12°C° 0 mm 2 mps 751 mmHg 91%
23:00 +10°C° 0 mm 2 mps 751 mmHg 93%
Show more